Hourly Data Report for September 04, 2017

All times are specified in Local Standard Time (LST). Add 1 hour to adjust for Daylight Saving Time where and when it is observed.

OTTAWA INTL A
ONTARIO

45°19'00.000" N
75°40'00.000" W
114.90 m
6106001
71628
YOW

Download Data

Hourly Data (September 2017)
Hourly Data Report for September 4, 2017
Temp Definition
°C
Dew Point Temp Definition
°C
Rel Hum Definition
%
Wind Dir Definition
10's deg

Wind Spd Definition
km/h
Visibility Definition
km
Stn Press Definition
kPa
Hmdx Definition


Wind Chill Definition


Weather Definition


TIME
00:00 Legend Double Dagger 11.9 11.3 96 27 7 24.1 99.49     LegendNANA
01:00 Legend Double Dagger 10.5 10.1 97 24 10 24.1 99.47     Mostly Cloudy
02:00 Legend Double Dagger 11.0 10.5 97 23 10 24.1 99.49     LegendNANA
03:00 Legend Double Dagger 10.9 10.4 97 21 9 24.1 99.46     LegendNANA
04:00 Legend Double Dagger 10.5 10.1 98 20 11 24.1 99.43     Mostly Cloudy
05:00 Legend Double Dagger 10.7 10.4 98 20 11 24.1 99.42     LegendNANA
06:00 Legend Double Dagger 11.8 11.3 97 20 14 24.1 99.45     LegendNANA
07:00 Legend Double Dagger 12.7 12.2 97 19 13 8.1 99.40     Fog
08:00 Legend Double Dagger 13.9 13.2 96 19 13 8.1 99.39     Fog
09:00 Legend Double Dagger 15.9 14.5 91 20 16 8.1 99.33     Rain,Fog
10:00 Legend Double Dagger 16.1 15.3 95 17 15 8.1 99.17     Rain,Fog
11:00 Legend Double Dagger 17.8 16.4 91 18 19 11.3 99.09     LegendNANA
12:00 Legend Double Dagger 19.1 17.2 88 19 15 24.1 99.03     LegendNANA
13:00 Legend Double Dagger 21.1 17.4 79 19 19 24.1 98.96 27   Cloudy
14:00 Legend Double Dagger 22.6 17.4 72 18 20 24.1 98.92 28   Thunderstorms
15:00 Legend Double Dagger 21.6 16.7 73 19 11 16.1 98.96 27   Rain
16:00 Legend Double Dagger 20.6 17.1 80 19 9 16.1 98.92 26   Rain
17:00 Legend Double Dagger 19.4 17.2 87 15 8 24.1 98.85     LegendNANA
18:00 Legend Double Dagger 18.5 16.7 89 20 9 4.8 98.95     Moderate Rain,Fog
19:00 Legend Double Dagger 18.3 16.3 88 19 34 11.3 98.82     Rain
20:00 Legend Double Dagger 18.3 16.3 88 18 26 12.9 98.68     LegendNANA
21:00 Legend Double Dagger 18.0 16.3 90 19 16 16.1 98.66     Rain
22:00 Legend Double Dagger 18.2 16.6 90 19 18 16.1 98.61     Rain
23:00 Legend Double Dagger 18.1 16.8 92 22 13 16.1 98.55     LegendNANA

Notes on Data Quality.

Legend

  • E = Estimated
  • M = Missing
  • NA = Not Available
  • ‡ = Partner data that is not subject to review by the National Climate Archives
Date modified: